[[{"header":{"parameterUnit":"m.s-1","parameterCategory":2,"la1":30.2991,"la2":30.254,"lo1":-89.0895,"lo2":-89.0444,"dx":0.0017,"dy":0.0017,"nx":28,"ny":28,"refTime":"2022-12-23T15:00:00:Z","depth":"0","parameterNumber":2,"parameterNumberName":"U-component_of_CURRENTS"},"data":[0,0,0,0,0,0,0,0,0,0,0,0,0,0,0,0,0,0,0,0,0,0,0,0,0,0,0,0,0,0,0,0,0,0,0,0,0,0,0,0,0,0,0,0,0,0,0,0,0,0,0,0,0,0,0,0,0,0,0.171,0.1711,0,0.1783,0.1784,0.1785,0.1814,0.1814,0.1813,0.1813,0.1835,0.1836,0.1837,0,0,0,0,0,0,0,0,0,0,0,0,0,0.1595,0.1597,0.171,0.1711,0.1712,0.1783,0.1784,0.1785,0.1814,0.1814,0.1813,0.1813,0.1835,0.1836,0.1837,0,0,0,0,0,0,0,0,0,0,0,0,0,0.1654,0.1598,0.171,0.1735,0.1738,0.1783,0.1784,0.1785,0.1814,0.1814,0.1813,0.1813,0.1835,0.1836,0.1837,0.1848,0,0,0.184,0.1841,0,0,0,0,0,0,0,0,0.165,0.1658,0.1731,0.1734,0.1737,0.1789,0.1752,0.1804,0.1814,0.1785,0.1813,0.1813,0.1816,0.1818,0.1833,0.1849,0.185,0.184,0.1841,0.1841,0.1842,0,0,0,0,0,0,0,0.1646,0.1655,0.1739,0.1732,0.1736,0.1743,0.1751,0.1762,0.1799,0.1787,0.179,0.1798,0.1817,0.1832,0.1833,0.1851,0.184,0.1841,0.1842,0.1842,0.1898,0.1899,0,0,0,0,0,0,0.1639,0.1651,0.1737,0.1741,0.1693,0.1745,0.1754,0.1773,0.18,0.1805,0.1799,0.18,0.183,0.1832,0.1834,0.1869,0.1841,0.1842,0.1843,0.1897,0.1898,0.1899,0,0,0,0,0,0,0.1636,0.1646,0.1734,0.1697,0.1709,0.1747,0.1768,0.1774,0.1791,0.181,0.1813,0.1809,0.183,0.1833,0.1854,0.1869,0.1843,0.1844,0.1896,0.1897,0.1899,0.1927,0,0,0,0,0,0,0.1633,0.1645,0.1653,0.1697,0.1711,0.1765,0.1768,0.1776,0.1797,0.1799,0.182,0.1822,0.183,0.1852,0.1855,0.187,0.1845,0.1895,0.1897,0.1898,0.1925,0.1929,0.1932,0,0,0,0,0,0.1628,0.1642,0.1653,0.1663,0.1722,0.1766,0.1774,0.1799,0.1798,0.1812,0.1826,0.1821,0.1864,0.1854,0.1857,0.1873,0.1894,0.1896,0.1898,0.1923,0.1928,0.1932,0,0,0,0,0,0,0.1594,0.1648,0.166,0.1689,0.1726,0.1771,0.1785,0.1799,0.1823,0.1822,0.1833,0.1837,0.1861,0.1863,0.1851,0.1894,0.1878,0.188,0.1896,0.19,0.1904,0.1909,0.1846,0,0,0,0,0,0.159,0.1617,0.1666,0.1688,0.1707,0.1745,0.1763,0.1784,0.1812,0.1822,0.1837,0.1852,0.1872,0.1881,0.1897,0.1919,0.1945,0.1931,0.1935,0.1938,0.1945,0.1991,0.2,0.1905,0.1905,0.1905,0,0,0.1581,0.1615,0.1628,0.1682,0.1712,0.1748,0.1756,0.179,0.1818,0.1819,0.1853,0.1864,0.188,0.191,0.192,0.1913,0.1984,0.194,0.1943,0.1948,0.1994,0.2003,0.2012,0.1906,0.1906,0.1906,0,0,0.1581,0.1609,0.1634,0.1669,0.1717,0.1746,0.1756,0.1804,0.1823,0.1856,0.1867,0.1888,0.1914,0.1936,0.1948,0.198,0.2001,0.1982,0.2008,0.2053,0.2061,0.2069,0.2138,0.2152,0.1986,0.1986,0.1986,0,0.1564,0.1612,0.1645,0.1682,0.1713,0.1746,0.1782,0.181,0.1856,0.1878,0.1868,0.1926,0.1929,0.1979,0.1989,0.1988,0.2027,0.1989,0.2059,0.2066,0.2074,0.2143,0.2157,0.1987,0.1987,0.1987,0.1987,0,0.1591,0.1628,0.1647,0.1707,0.1742,0.1779,0.1826,0.1858,0.1877,0.1905,0.1952,0.1967,0.2007,0.2006,0.2005,0.2062,0.208,0.2057,0.2048,0.2085,0.2155,0.217,0.199,0.1989,0.1988,0.1988,0,0,0.1556,0.1648,0.1654,0.1695,0.1762,0.1798,0.1846,0.1908,0.1954,0.1974,0.2034,0.205,0.2062,0.2077,0.2085,0.2111,0.2193,0.2107,0.2109,0.2178,0.2323,0.2392,0.2414,0.2186,0.2188,0.219,0.2361,0,0.1568,0.1642,0.1683,0.1752,0.18,0.1849,0.1897,0.1951,0.1998,0.2061,0.2075,0.213,0.209,0.2125,0.2143,0.2188,0.2229,0.2151,0.2275,0.2279,0.2336,0.2432,0.2515,0.2679,0.2375,0.2377,0.2379,0,0.1585,0.1638,0.1709,0.1802,0.1826,0.1866,0.1968,0.2016,0.21,0.2138,0.2188,0.2215,0.2273,0.2225,0.232,0.2276,0.2304,0.2322,0.2329,0.2392,0.2375,0.2588,0.2717,0.2758,0.2401,0.24,0.2398,0,0.1567,0.1657,0.1718,0.175,0.1852,0.1892,0.1945,0.2036,0.2096,0.2201,0.2258,0.2323,0.2378,0.241,0.2452,0.2401,0.256,0.2495,0.2585,0.2591,0.2686,0.2697,0.287,0.256,0.256,0.2559,0.2559,0,0.1578,0.1627,0.1716,0.1754,0.1828,0.1895,0.1985,0.2051,0.2156,0.2246,0.2296,0.2392,0.2424,0.2514,0.252,0.2632,0.2625,0.2627,0.265,0.2701,0.271,0.2766,0.2742,0.2566,0.2564,0.2563,0.2562,0,0.1561,0.162,0.1695,0.1796,0.1827,0.1881,0.2,0.2068,0.2168,0.2295,0.2335,0.2472,0.2614,0.2658,0.2754,0.2747,0.2813,0.2853,0.2928,0.2955,0.3053,0.3027,0.3019,0.29,0.2994,0.2997,0.2999,0,0.1562,0.16,0.1709,0.1754,0.1801,0.1887,0.1947,0.206,0.2145,0.2354,0.2418,0.2599,0.2742,0.2931,0.2997,0.309,0.2953,0.3179,0.3077,0.3117,0.3103,0.289,0.277,0.3227,0.3231,0.3235,0.3237,0,0.1558,0.1596,0.1658,0.1745,0.1812,0.1886,0.1987,0.2056,0.2211,0.2335,0.2534,0.2674,0.2928,0.3109,0.3247,0.3285,0.3131,0.325,0.3278,0.3308,0.3102,0.298,0.306,0.3267,0.3264,0.3262,0.326,0.3259,0.1544,0.1579,0.1656,0.1735,0.1805,0.1873,0.1922,0.2049,0.2182,0.2391,0.2566,0.2809,0.3174,0.341,0.3406,0.3567,0.3336,0.3567,0.354,0.3322,0.3183,0.3342,0.3566,0.3565,0.3563,0.3563,0.3562,0,0.1522,0.1569,0.1642,0.1726,0.1773,0.1825,0.1937,0.1994,0.2132,0.2412,0.2606,0.311,0.3391,0.3616,0.3936,0.3917,0.3618,0.3858,0.3609,0.3469,0.3674,0.3666,0.3939,0.3939,0.3939,0.3939,0.3939,0.3938,0.1512,0.1563,0.1604,0.1666,0.172,0.1755,0.1802,0.1908,0.2099,0.2458,0.2798,0.3086,0.369,0.4252,0.4416,0.4281,0.3914,0.3842,0.3632,0.3896,0.3865,0.3836,0.3825,0.4127,0.4127,0.3334,0.333,0.3326]},{"header":{"parameterUnit":"m.s-1","parameterCategory":2,"la1":30.2991,"la2":30.254,"lo1":-89.0895,"lo2":-89.0444,"dx":0.0017,"dy":0.0017,"nx":28,"ny":28,"refTime":"2022-12-23T15:00:00:Z","depth":"0","parameterNumber":3,"parameterNumberName":"V-component_of_CURRENTS"},"data":[0,0,0,0,0,0,0,0,0,0,0,0,0,0,0,0,0,0,0,0,0,0,0,0,0,0,0,0,0,0,0,0,0,0,0,0,0,0,0,0,0,0,0,0,0,0,0,0,0,0,0,0,0,0,0,0,0,0,-0.0512,-0.0513,0,-0.0562,-0.0563,-0.0564,-0.0614,-0.0615,-0.0615,-0.0616,-0.0701,-0.0703,-0.0704,0,0,0,0,0,0,0,0,0,0,0,0,0,-0.0516,-0.0516,-0.0512,-0.0513,-0.0513,-0.0562,-0.0563,-0.0564,-0.0614,-0.0615,-0.0615,-0.0616,-0.07,-0.0703,-0.0705,0,0,0,0,0,0,0,0,0,0,0,0,0,-0.0536,-0.0516,-0.0512,-0.0544,-0.0547,-0.0562,-0.0563,-0.0564,-0.0614,-0.0615,-0.0616,-0.0616,-0.07,-0.0702,-0.0705,-0.0704,0,0,-0.0713,-0.0714,0,0,0,0,0,0,0,0,-0.0535,-0.0536,-0.0538,-0.0541,-0.0545,-0.0582,-0.0596,-0.0612,-0.0614,-0.059,-0.0616,-0.0617,-0.0663,-0.0669,-0.0677,-0.0708,-0.0711,-0.0713,-0.0715,-0.0716,-0.0716,0,0,0,0,0,0,0,-0.0534,-0.0535,-0.0533,-0.0539,-0.0543,-0.0574,-0.0578,-0.0599,-0.0622,-0.0592,-0.0595,-0.0599,-0.0665,-0.0675,-0.068,-0.0713,-0.0713,-0.0715,-0.0717,-0.0718,-0.0761,-0.0761,0,0,0,0,0,0,-0.0521,-0.0533,-0.0532,-0.0535,-0.0541,-0.0573,-0.0577,-0.057,-0.0622,-0.063,-0.0598,-0.0601,-0.067,-0.0677,-0.0683,-0.0686,-0.0716,-0.0718,-0.072,-0.0761,-0.0761,-0.076,0,0,0,0,0,0,-0.0521,-0.052,-0.053,-0.0535,-0.0538,-0.0572,-0.0564,-0.0571,-0.0579,-0.0626,-0.0635,-0.0599,-0.0671,-0.0679,-0.0701,-0.069,-0.0719,-0.0722,-0.0762,-0.0761,-0.0761,-0.0691,0,0,0,0,0,0,-0.052,-0.0519,-0.0508,-0.0533,-0.0537,-0.053,-0.0563,-0.0571,-0.0579,-0.0584,-0.063,-0.0639,-0.0672,-0.0697,-0.0704,-0.0694,-0.0724,-0.0762,-0.0762,-0.0761,-0.0694,-0.0689,-0.0684,0,0,0,0,0,-0.052,-0.0493,-0.0507,-0.0507,-0.0521,-0.0529,-0.0533,-0.0562,-0.0578,-0.0574,-0.061,-0.0637,-0.0697,-0.0699,-0.0707,-0.0697,-0.0763,-0.0762,-0.0761,-0.0697,-0.069,-0.0684,0,0,0,0,0,0,-0.0481,-0.0496,-0.0512,-0.0489,-0.0507,-0.0537,-0.0532,-0.0554,-0.0578,-0.0584,-0.0631,-0.0642,-0.066,-0.0686,-0.0686,-0.0708,-0.0734,-0.0735,-0.0683,-0.0677,-0.0671,-0.0665,-0.0726,0,0,0,0,0,-0.0468,-0.0457,-0.048,-0.0463,-0.0468,-0.05,-0.0507,-0.0526,-0.0552,-0.0563,-0.0596,-0.0631,-0.0662,-0.0674,-0.0705,-0.0711,-0.075,-0.0711,-0.0705,-0.0701,-0.0701,-0.0759,-0.0759,-0.0757,-0.0757,-0.0757,0,0,-0.0447,-0.0455,-0.0448,-0.0455,-0.0471,-0.047,-0.0506,-0.0508,-0.051,-0.0568,-0.0576,-0.0615,-0.0661,-0.0674,-0.0684,-0.0693,-0.0718,-0.0699,-0.0695,-0.0698,-0.0758,-0.0758,-0.0758,-0.0757,-0.0757,-0.0757,0,0,-0.0403,-0.0408,-0.0389,-0.0399,-0.0417,-0.0438,-0.0435,-0.0463,-0.0478,-0.049,-0.0538,-0.0569,-0.0604,-0.0639,-0.066,-0.0642,-0.0692,-0.0648,-0.0611,-0.0666,-0.0667,-0.0668,-0.0703,-0.0708,-0.064,-0.064,-0.064,0,-0.0378,-0.0361,-0.0384,-0.0373,-0.0377,-0.042,-0.0406,-0.0423,-0.0455,-0.0469,-0.0483,-0.0554,-0.0589,-0.062,-0.0613,-0.063,-0.0665,-0.063,-0.066,-0.0662,-0.0664,-0.07,-0.0706,-0.0637,-0.0637,-0.0638,-0.0638,0,-0.0329,-0.0318,-0.0305,-0.031,-0.0315,-0.0309,-0.0339,-0.0348,-0.0373,-0.0401,-0.0436,-0.0488,-0.0534,-0.0545,-0.0572,-0.0603,-0.0622,-0.065,-0.0674,-0.066,-0.0698,-0.0706,-0.0632,-0.0633,-0.0634,-0.0635,0,0,-0.0272,-0.0271,-0.0269,-0.0265,-0.0284,-0.0283,-0.0284,-0.0305,-0.0314,-0.035,-0.0367,-0.0419,-0.046,-0.0487,-0.053,-0.057,-0.0609,-0.0608,-0.0612,-0.0639,-0.0719,-0.0713,-0.0721,-0.0645,-0.0646,-0.0647,-0.0732,0,-0.0231,-0.0198,-0.0211,-0.0187,-0.0177,-0.0213,-0.021,-0.0236,-0.0271,-0.0296,-0.0358,-0.0391,-0.0434,-0.0455,-0.0503,-0.0588,-0.0629,-0.0582,-0.0732,-0.0736,-0.0731,-0.073,-0.074,-0.0815,-0.074,-0.0742,-0.0743,0,-0.0185,-0.0172,-0.0138,-0.0135,-0.0133,-0.0127,-0.0147,-0.0151,-0.0202,-0.0225,-0.0278,-0.0335,-0.0397,-0.0435,-0.0572,-0.0541,-0.0622,-0.0686,-0.0691,-0.0718,-0.0745,-0.0822,-0.0833,-0.1071,-0.0755,-0.0754,-0.0754,0,-0.0145,-0.0124,-0.0097,-0.0095,-0.0095,-0.0091,-0.0097,-0.0134,-0.0126,-0.0189,-0.0189,-0.0294,-0.0321,-0.0453,-0.0572,-0.0583,-0.0717,-0.0756,-0.0827,-0.0827,-0.0881,-0.0883,-0.1139,-0.0857,-0.0857,-0.0856,-0.0856,0,-0.0101,-0.0081,-0.0077,-0.0063,-0.0031,-0.0052,-0.0032,-0.0054,-0.0067,-0.0036,-0.015,-0.0138,-0.0326,-0.0419,-0.0558,-0.0702,-0.0712,-0.0822,-0.0853,-0.0854,-0.0853,-0.1099,-0.123,-0.086,-0.0859,-0.0858,-0.0858,0,-0.0062,-0.0059,-0.0028,-0.0018,-0.0011,0.0007,0.0034,0.0055,0.0028,0.0066,0.0059,-0.0023,-0.0139,-0.0327,-0.0524,-0.0657,-0.0966,-0.0864,-0.0837,-0.0862,-0.1159,-0.1284,-0.1582,-0.1734,-0.0978,-0.0979,-0.0979,0,-0.0037,-0.0016,0.0011,0.0043,0.005,0.0078,0.0114,0.0105,0.0152,0.0161,0.0207,0.0103,0.0076,-0.0221,-0.0495,-0.0755,-0.0981,-0.0936,-0.0967,-0.1182,-0.1346,-0.1454,-0.1569,-0.1012,-0.1012,-0.1013,-0.1013,0,0.0014,0.0019,0.005,0.0117,0.0159,0.0215,0.0272,0.0333,0.0355,0.0405,0.0474,0.0446,0.0157,-0.0093,-0.0465,-0.0673,-0.1149,-0.0953,-0.1206,-0.1417,-0.1527,-0.1682,-0.0938,-0.1018,-0.1017,-0.1017,-0.1017,-0.1017,0.0056,0.0091,0.0141,0.021,0.027,0.0376,0.0464,0.0549,0.0663,0.0793,0.0719,0.0745,0.03,-0.0206,-0.0536,-0.1155,-0.1188,-0.1347,-0.1485,-0.1576,-0.1725,-0.0969,-0.1061,-0.1061,-0.1061,-0.1061,-0.1061,0,0.0126,0.0174,0.0242,0.0343,0.0447,0.0451,0.0602,0.0726,0.0914,0.1006,0.1076,0.088,0.0322,-0.0261,-0.1065,-0.1559,-0.1805,-0.1875,-0.2066,-0.2164,-0.1516,-0.1518,-0.1677,-0.1677,-0.1677,-0.1676,-0.1676,-0.1676,0.017,0.0259,0.0301,0.0492,0.0575,0.0754,0.0863,0.1041,0.1167,0.1339,0.1372,0.133,0.0878,-0.0683,-0.1814,-0.2117,-0.2523,-0.2622,-0.2836,-0.2413,-0.2375,-0.2339,-0.2374,-0.271,-0.2712,-0.3448,-0.3456,-0.3461]}],[{"header":{"parameterUnit":"m.s-1","parameterCategory":2,"la1":30.2991,"la2":30.254,"lo1":-89.0895,"lo2":-89.0444,"dx":0.0017,"dy":0.0017,"nx":28,"ny":28,"refTime":"2022-12-23T15:00:00:Z","depth":"2","parameterNumber":2,"parameterNumberName":"U-component_of_CURRENTS"},"data":[0,0,0,0,0,0,0,0,0,0,0,0,0,0,0,0,0,0,0,0,0,0,0,0,0,0,0,0,0,0,0,0,0,0,0,0,0,0,0,0,0,0,0,0,0,0,0,0,0,0,0,0,0,0,0,0,0,0,0.1681,0.1682,0,0.1752,0.1753,0.1754,0.1783,0.1783,0.1783,0.1783,0.1804,0.1805,0.1806,0,0,0,0,0,0,0,0,0,0,0,0,0,0.1567,0.1569,0.1681,0.1682,0.1683,0.1752,0.1753,0.1754,0.1783,0.1783,0.1783,0.1783,0.1804,0.1805,0.1806,0,0,0,0,0,0,0,0,0,0,0,0,0,0.1625,0.1569,0.1681,0.1706,0.1709,0.1752,0.1753,0.1754,0.1783,0.1783,0.1783,0.1783,0.1804,0.1805,0.1806,0.1816,0,0,0.1809,0.1809,0,0,0,0,0,0,0,0,0.1621,0.1629,0.1701,0.1704,0.1707,0.1759,0.1721,0.1773,0.1783,0.1754,0.1783,0.1782,0.1785,0.1787,0.1801,0.1817,0.1818,0.1809,0.181,0.181,0.181,0,0,0,0,0,0,0,0.1617,0.1626,0.1709,0.1702,0.1706,0.1713,0.1721,0.1731,0.1768,0.1757,0.1759,0.1768,0.1786,0.18,0.1802,0.1818,0.1809,0.181,0.1811,0.1811,0.1865,0.1866,0,0,0,0,0,0,0.161,0.1622,0.1706,0.1711,0.1664,0.1715,0.1724,0.1742,0.177,0.1774,0.1768,0.1769,0.1799,0.1801,0.1803,0.1838,0.181,0.1811,0.1812,0.1864,0.1865,0.1866,0,0,0,0,0,0,0.1608,0.1617,0.1703,0.1668,0.1679,0.1717,0.1738,0.1744,0.1761,0.1779,0.1782,0.1779,0.1799,0.1801,0.1822,0.1838,0.1812,0.1812,0.1863,0.1865,0.1866,0.1894,0,0,0,0,0,0,0.1604,0.1616,0.1624,0.1668,0.1681,0.1735,0.1738,0.1745,0.1767,0.1769,0.1789,0.1791,0.1799,0.1821,0.1823,0.1839,0.1813,0.1862,0.1864,0.1865,0.1892,0.1896,0.1899,0,0,0,0,0,0.16,0.1614,0.1624,0.1634,0.1692,0.1735,0.1743,0.1768,0.1767,0.1781,0.1796,0.1791,0.1832,0.1822,0.1825,0.1841,0.1862,0.1864,0.1865,0.189,0.1895,0.1899,0,0,0,0,0,0,0.1566,0.1619,0.1632,0.166,0.1697,0.1741,0.1755,0.1769,0.1793,0.1792,0.1802,0.1806,0.183,0.1831,0.182,0.1862,0.1846,0.1848,0.1864,0.1868,0.1872,0.1878,0.1814,0,0,0,0,0,0.1563,0.1589,0.1637,0.1659,0.1678,0.1715,0.1734,0.1754,0.1781,0.1792,0.1806,0.1821,0.184,0.185,0.1865,0.1886,0.1912,0.1898,0.1902,0.1905,0.1912,0.1958,0.1967,0.1872,0.1872,0.1872,0,0,0.1554,0.1587,0.1601,0.1654,0.1683,0.1718,0.1726,0.176,0.1788,0.1789,0.1823,0.1833,0.1848,0.1878,0.1888,0.188,0.1951,0.1908,0.191,0.1915,0.1961,0.197,0.1979,0.1874,0.1873,0.1873,0,0,0.1554,0.1582,0.1607,0.1641,0.1689,0.1717,0.1727,0.1774,0.1794,0.1826,0.1837,0.1857,0.1882,0.1904,0.1915,0.1947,0.1968,0.1949,0.1975,0.202,0.2028,0.2036,0.2105,0.2119,0.1953,0.1953,0.1953,0,0.1538,0.1585,0.1618,0.1654,0.1685,0.1717,0.1753,0.178,0.1826,0.1848,0.1838,0.1895,0.1897,0.1947,0.1956,0.1955,0.1994,0.1957,0.2026,0.2034,0.2041,0.211,0.2124,0.1954,0.1954,0.1954,0.1954,0,0.1564,0.1601,0.162,0.1679,0.1713,0.175,0.1796,0.1828,0.1847,0.1874,0.1921,0.1935,0.1975,0.1974,0.1972,0.2029,0.2047,0.2024,0.2015,0.2052,0.2123,0.2137,0.1957,0.1956,0.1955,0.1955,0,0,0.153,0.162,0.1627,0.1667,0.1733,0.1769,0.1816,0.1877,0.1924,0.1943,0.2003,0.2017,0.2031,0.2045,0.2052,0.2078,0.216,0.2074,0.2076,0.2145,0.229,0.2352,0.2374,0.2153,0.2155,0.2157,0.2328,0,0.1542,0.1616,0.1656,0.1724,0.177,0.1819,0.1866,0.192,0.1967,0.203,0.2043,0.2099,0.2058,0.2093,0.2111,0.2155,0.2196,0.2118,0.2242,0.2246,0.2298,0.2392,0.2169,0.2307,0.2342,0.2345,0.2346,0,0.1559,0.1611,0.1681,0.1773,0.1797,0.1837,0.1937,0.1986,0.2069,0.2107,0.2157,0.2184,0.2243,0.2194,0.2288,0.2245,0.2272,0.2289,0.2296,0.2353,0.2335,0.2271,0.2332,0.2371,0.2369,0.2367,0.2365,0,0.1542,0.163,0.169,0.1721,0.1823,0.1863,0.1915,0.2006,0.2066,0.2171,0.2227,0.2293,0.2348,0.238,0.242,0.237,0.2526,0.2463,0.2546,0.2552,0.2387,0.2375,0.2528,0.2528,0.2527,0.2527,0.2526,0,0.1553,0.16,0.1689,0.1726,0.18,0.1866,0.1956,0.2023,0.2127,0.2216,0.2267,0.2362,0.2394,0.2482,0.2488,0.2595,0.2592,0.2588,0.261,0.2395,0.2383,0.2439,0.2427,0.2533,0.2532,0.2531,0.253,0,0.1536,0.1594,0.1668,0.1768,0.1799,0.1853,0.1972,0.204,0.214,0.2266,0.2307,0.2441,0.258,0.2624,0.2718,0.2709,0.2783,0.281,0.258,0.2573,0.2761,0.2747,0.2938,0.2942,0.2945,0.2948,0.295,0,0.1536,0.1574,0.1682,0.1726,0.1774,0.186,0.192,0.2033,0.2118,0.2324,0.2387,0.2565,0.2695,0.2878,0.2882,0.2956,0.2928,0.281,0.2666,0.2807,0.2808,0.2789,0.2772,0.2459,0.2457,0.2455,0.2454,0,0.1532,0.157,0.1632,0.1718,0.1786,0.186,0.1961,0.2029,0.2182,0.2295,0.2491,0.2619,0.2811,0.2817,0.2922,0.2913,0.2781,0.2788,0.2995,0.2407,0.2373,0.2368,0.2363,0.244,0.2441,0.2442,0.2443,0.2443,0.1518,0.1553,0.163,0.1709,0.1779,0.1846,0.1896,0.199,0.2109,0.2247,0.2447,0.2554,0.2653,0.2717,0.269,0.2662,0.2827,0.2691,0.2687,0.2686,0.2618,0.2594,0.2691,0.2693,0.2696,0.2698,0.27,0,0.1485,0.1543,0.1616,0.17,0.1732,0.18,0.1911,0.192,0.2004,0.2164,0.2286,0.2218,0.2284,0.2376,0.2323,0.2387,0.2249,0.2303,0.2075,0.2096,0.2113,0.2003,0.1919,0.1915,0.1913,0.191,0,0,0.1472,0.1516,0.1557,0.1611,0.1676,0.1688,0.1735,0.1759,0.1844,0.1889,0.1948,0.213,0.2326,0.2054,0.207,0.199,0.2003,0.1922,0.2561,0.2313,0.2325,0.2373,0.2238,0,0,0,0,0]},{"header":{"parameterUnit":"m.s-1","parameterCategory":2,"la1":30.2991,"la2":30.254,"lo1":-89.0895,"lo2":-89.0444,"dx":0.0017,"dy":0.0017,"nx":28,"ny":28,"refTime":"2022-12-23T15:00:00:Z","depth":"2","parameterNumber":3,"parameterNumberName":"V-component_of_CURRENTS"},"data":[0,0,0,0,0,0,0,0,0,0,0,0,0,0,0,0,0,0,0,0,0,0,0,0,0,0,0,0,0,0,0,0,0,0,0,0,0,0,0,0,0,0,0,0,0,0,0,0,0,0,0,0,0,0,0,0,0,0,-0.0448,-0.0448,0,-0.0497,-0.0497,-0.0498,-0.0548,-0.0549,-0.0549,-0.055,-0.0634,-0.0635,-0.0637,0,0,0,0,0,0,0,0,0,0,0,0,0,-0.045,-0.045,-0.0448,-0.0448,-0.0449,-0.0497,-0.0497,-0.0498,-0.0548,-0.0549,-0.0549,-0.055,-0.0633,-0.0635,-0.0637,0,0,0,0,0,0,0,0,0,0,0,0,0,-0.047,-0.0449,-0.0448,-0.0479,-0.0482,-0.0497,-0.0497,-0.0498,-0.0548,-0.0549,-0.055,-0.055,-0.0632,-0.0635,-0.0637,-0.0635,0,0,-0.0645,-0.0646,0,0,0,0,0,0,0,0,-0.0469,-0.047,-0.0474,-0.0476,-0.048,-0.0516,-0.0529,-0.0546,-0.0548,-0.0524,-0.055,-0.0551,-0.0596,-0.0602,-0.061,-0.0639,-0.0643,-0.0645,-0.0647,-0.0648,-0.0649,0,0,0,0,0,0,0,-0.0467,-0.0468,-0.0468,-0.0474,-0.0478,-0.0508,-0.0512,-0.0533,-0.0556,-0.0526,-0.0529,-0.0533,-0.0599,-0.0607,-0.0612,-0.0644,-0.0645,-0.0647,-0.0649,-0.065,-0.0693,-0.0693,0,0,0,0,0,0,-0.0455,-0.0466,-0.0467,-0.047,-0.0475,-0.0507,-0.0511,-0.0505,-0.0555,-0.0563,-0.0532,-0.0535,-0.0603,-0.0609,-0.0616,-0.062,-0.0648,-0.065,-0.0652,-0.0693,-0.0693,-0.0692,0,0,0,0,0,0,-0.0455,-0.0454,-0.0465,-0.0469,-0.0473,-0.0506,-0.0498,-0.0505,-0.0514,-0.0559,-0.0568,-0.0534,-0.0604,-0.0612,-0.0634,-0.0623,-0.0651,-0.0654,-0.0694,-0.0693,-0.0693,-0.0626,0,0,0,0,0,0,-0.0454,-0.0454,-0.0443,-0.0468,-0.0472,-0.0465,-0.0498,-0.0505,-0.0515,-0.0519,-0.0564,-0.0573,-0.0605,-0.063,-0.0636,-0.0627,-0.0656,-0.0694,-0.0693,-0.0693,-0.0629,-0.0623,-0.0619,0,0,0,0,0,-0.0454,-0.0428,-0.0442,-0.0442,-0.0456,-0.0464,-0.0469,-0.0497,-0.0513,-0.051,-0.0545,-0.0571,-0.063,-0.0631,-0.0639,-0.0631,-0.0695,-0.0694,-0.0693,-0.0631,-0.0624,-0.0619,0,0,0,0,0,0,-0.0417,-0.0432,-0.0447,-0.0426,-0.0443,-0.0472,-0.0469,-0.049,-0.0513,-0.0519,-0.0566,-0.0576,-0.0595,-0.0619,-0.0619,-0.0642,-0.0667,-0.0667,-0.0617,-0.0611,-0.0606,-0.0599,-0.0658,0,0,0,0,0,-0.0404,-0.0394,-0.0417,-0.04,-0.0406,-0.0437,-0.0444,-0.0463,-0.0488,-0.0499,-0.0532,-0.0566,-0.0596,-0.0608,-0.0639,-0.0644,-0.0683,-0.0645,-0.064,-0.0635,-0.0635,-0.0691,-0.0692,-0.069,-0.069,-0.069,0,0,-0.0385,-0.0392,-0.0386,-0.0393,-0.0409,-0.0407,-0.0443,-0.0446,-0.0447,-0.0504,-0.0513,-0.0551,-0.0595,-0.0609,-0.0618,-0.0627,-0.0653,-0.0634,-0.063,-0.0633,-0.0691,-0.0691,-0.0691,-0.0689,-0.0689,-0.0689,0,0,-0.0342,-0.0347,-0.0329,-0.0339,-0.0357,-0.0377,-0.0375,-0.0402,-0.0417,-0.043,-0.0476,-0.0507,-0.0541,-0.0575,-0.0596,-0.0579,-0.0628,-0.0586,-0.055,-0.0604,-0.0604,-0.0606,-0.0641,-0.0646,-0.0578,-0.0578,-0.0578,0,-0.0319,-0.0301,-0.0324,-0.0313,-0.0318,-0.036,-0.0346,-0.0363,-0.0394,-0.0408,-0.0423,-0.0492,-0.0527,-0.0556,-0.0551,-0.0568,-0.0603,-0.0567,-0.0597,-0.0599,-0.0602,-0.0638,-0.0644,-0.0575,-0.0575,-0.0575,-0.0576,0,-0.027,-0.0259,-0.0247,-0.0251,-0.0257,-0.025,-0.028,-0.0289,-0.0315,-0.0342,-0.0377,-0.0428,-0.0473,-0.0484,-0.0511,-0.0542,-0.0561,-0.0588,-0.0611,-0.0598,-0.0636,-0.0644,-0.057,-0.0571,-0.0572,-0.0573,0,0,-0.0216,-0.0214,-0.0212,-0.0207,-0.0225,-0.0225,-0.0226,-0.0245,-0.0253,-0.029,-0.0306,-0.0359,-0.04,-0.0427,-0.047,-0.0509,-0.0549,-0.0547,-0.0551,-0.0578,-0.0658,-0.0652,-0.066,-0.0584,-0.0585,-0.0586,-0.0672,0,-0.0176,-0.0142,-0.0155,-0.013,-0.0118,-0.0155,-0.0151,-0.0176,-0.0211,-0.0236,-0.0298,-0.033,-0.0374,-0.0395,-0.0443,-0.0528,-0.0569,-0.0522,-0.067,-0.0674,-0.0668,-0.0669,-0.0619,-0.069,-0.068,-0.0682,-0.0683,0,-0.0131,-0.0116,-0.0082,-0.0076,-0.0074,-0.0068,-0.0086,-0.009,-0.014,-0.0164,-0.0217,-0.0273,-0.0336,-0.0374,-0.0511,-0.048,-0.0562,-0.0625,-0.063,-0.0656,-0.0683,-0.0706,-0.0706,-0.0696,-0.0695,-0.0694,-0.0693,0,-0.0091,-0.0068,-0.0041,-0.0038,-0.0036,-0.0032,-0.0037,-0.0073,-0.0065,-0.0127,-0.0128,-0.0232,-0.026,-0.0392,-0.0511,-0.0522,-0.0655,-0.0694,-0.0765,-0.0765,-0.0767,-0.0765,-0.0794,-0.0794,-0.0794,-0.0794,-0.0794,0,-0.0047,-0.0026,-0.0021,-0.0005,0.0027,0.0008,0.0028,0.0007,-0.0007,0.0025,-0.0089,-0.0078,-0.0265,-0.0357,-0.0497,-0.0641,-0.0651,-0.076,-0.0791,-0.074,-0.0735,-0.0779,-0.0776,-0.0797,-0.0796,-0.0796,-0.0795,0,-0.0008,-0.0005,0.0028,0.004,0.0047,0.0066,0.0093,0.0115,0.0087,0.0124,0.0117,0.0036,-0.0082,-0.0268,-0.0464,-0.0596,-0.0755,-0.0802,-0.0716,-0.0735,-0.0837,-0.083,-0.0916,-0.0917,-0.0917,-0.0918,-0.0918,0,0.0017,0.0038,0.0066,0.0099,0.0106,0.0135,0.0171,0.0163,0.021,0.0218,0.0263,0.0158,0.0129,-0.0166,-0.042,-0.0675,-0.0726,-0.0813,-0.0835,-0.0831,-0.0852,-0.0844,-0.0836,-0.081,-0.0809,-0.0809,-0.0808,0,0.0067,0.0072,0.0104,0.0171,0.0213,0.0269,0.0327,0.0387,0.0409,0.0456,0.0522,0.0491,0.0221,-0.0013,-0.0376,-0.0553,-0.0778,-0.0812,-0.0842,-0.0778,-0.0736,-0.0755,-0.075,-0.0804,-0.0805,-0.0805,-0.0805,-0.0805,0.0108,0.0144,0.0194,0.0262,0.0322,0.0427,0.0514,0.059,0.07,0.0799,0.0738,0.0705,0.039,-0.0043,-0.0353,-0.07,-0.0713,-0.085,-0.085,-0.085,-0.0814,-0.0774,-0.0842,-0.0843,-0.0843,-0.0844,-0.0844,0,0.0188,0.0225,0.0292,0.0392,0.0502,0.05,0.0649,0.075,0.092,0.0957,0.1001,0.0745,0.0436,0.0067,-0.042,-0.0725,-0.075,-0.0836,-0.08,-0.0802,-0.0804,-0.0765,-0.0781,-0.0782,-0.0782,-0.0783,0,0,0.0235,0.0328,0.0369,0.0556,0.0628,0.0796,0.0903,0.1022,0.1095,0.118,0.1149,0.1009,0.0554,0.0217,-0.0203,-0.0485,-0.0571,-0.0543,-0.0563,-0.0472,-0.047,-0.0785,-0.0723,0,0,0,0,0]}],[{"header":{"parameterUnit":"m.s-1","parameterCategory":2,"la1":30.2991,"la2":30.254,"lo1":-89.0895,"lo2":-89.0444,"dx":0.0017,"dy":0.0017,"nx":28,"ny":28,"refTime":"2022-12-23T15:00:00:Z","depth":"4","parameterNumber":2,"parameterNumberName":"U-component_of_CURRENTS"},"data":[0,0,0,0,0,0,0,0,0,0,0,0,0,0,0,0,0,0,0,0,0,0,0,0,0,0,0,0,0,0,0,0,0,0,0,0,0,0,0,0,0,0,0,0,0,0,0,0,0,0,0,0,0,0,0,0,0,0,0.109,0.1091,0,0.1166,0.1166,0.1167,0.1216,0.1216,0.1217,0.1217,0.1267,0.1267,0.1268,0,0,0,0,0,0,0,0,0,0,0,0,0,0.0958,0.096,0.109,0.1091,0.1092,0.1165,0.1166,0.1167,0.1216,0.1216,0.1217,0.1218,0.1266,0.1267,0.1268,0,0,0,0,0,0,0,0,0,0,0,0,0,0.1021,0.0961,0.109,0.1127,0.1131,0.1165,0.1166,0.1167,0.1216,0.1216,0.1217,0.1218,0.1266,0.1267,0.1269,0.1263,0,0,0.1273,0.1273,0,0,0,0,0,0,0,0,0.1017,0.1026,0.112,0.1124,0.1129,0.1184,0.1138,0.1199,0.1216,0.1182,0.1217,0.1218,0.1237,0.1241,0.1251,0.1265,0.1267,0.1273,0.1274,0.1274,0.1274,0,0,0,0,0,0,0,0.1013,0.1022,0.1118,0.1121,0.1127,0.1129,0.1139,0.115,0.1203,0.1185,0.1189,0.12,0.1239,0.125,0.1253,0.1268,0.1273,0.1274,0.1275,0.1275,0.1346,0.1347,0,0,0,0,0,0,0.1008,0.1019,0.1116,0.1121,0.1076,0.1131,0.1142,0.1164,0.1203,0.1211,0.1199,0.1202,0.1247,0.1251,0.1255,0.1315,0.1274,0.1275,0.1276,0.1345,0.1346,0.1347,0,0,0,0,0,0,0.1005,0.1017,0.1113,0.1072,0.1085,0.1133,0.1157,0.1165,0.1201,0.1215,0.1222,0.123,0.1248,0.1253,0.129,0.1314,0.1276,0.1277,0.1344,0.1345,0.1347,0.1393,0,0,0,0,0,0,0.1001,0.1015,0.104,0.1072,0.1087,0.115,0.1157,0.1166,0.1206,0.1211,0.1243,0.1247,0.1249,0.1289,0.1292,0.1315,0.1278,0.1342,0.1344,0.1346,0.139,0.1396,0.1401,0,0,0,0,0,0.0997,0.1025,0.1041,0.1053,0.1116,0.1151,0.1159,0.1193,0.1207,0.1227,0.1253,0.1247,0.1303,0.1291,0.1294,0.1319,0.1341,0.1344,0.1346,0.1387,0.1395,0.1401,0,0,0,0,0,0,0.0986,0.1034,0.1051,0.1096,0.1128,0.116,0.1186,0.1206,0.1242,0.1253,0.1263,0.1269,0.1309,0.1307,0.1293,0.1345,0.1321,0.1324,0.1351,0.1357,0.1363,0.1365,0.1279,0,0,0,0,0,0.0993,0.1027,0.1066,0.1104,0.1122,0.1157,0.118,0.1203,0.1234,0.1253,0.1274,0.1296,0.1317,0.1334,0.1349,0.1378,0.1388,0.1395,0.1401,0.1405,0.141,0.1438,0.1446,0.1355,0.1355,0.1355,0,0,0.0999,0.1031,0.1052,0.1104,0.1133,0.1162,0.1173,0.1216,0.1245,0.125,0.1301,0.1318,0.133,0.1365,0.1383,0.1371,0.1442,0.1408,0.1412,0.1414,0.1441,0.145,0.1458,0.1357,0.1357,0.1356,0,0,0.1016,0.1057,0.1086,0.1114,0.1163,0.1183,0.12,0.1244,0.1272,0.1316,0.1328,0.136,0.1395,0.1409,0.1418,0.1461,0.147,0.1471,0.1502,0.153,0.1538,0.1545,0.1593,0.1604,0.1474,0.1474,0.1474,0,0.102,0.1065,0.1099,0.113,0.1157,0.1194,0.1225,0.1256,0.1308,0.1332,0.1339,0.1404,0.1412,0.1455,0.1473,0.1473,0.1501,0.1476,0.1538,0.1544,0.1551,0.1598,0.1609,0.1477,0.1476,0.1476,0.1476,0,0.1049,0.1092,0.1111,0.1162,0.1194,0.123,0.1271,0.1311,0.1346,0.1374,0.1434,0.1454,0.1495,0.1501,0.1503,0.1554,0.1566,0.1541,0.1521,0.1563,0.161,0.1621,0.148,0.1479,0.1479,0.1478,0,0,0.1038,0.1115,0.1124,0.1151,0.1216,0.1241,0.1296,0.1349,0.139,0.1439,0.1492,0.153,0.1554,0.1566,0.1577,0.1598,0.167,0.1597,0.1597,0.1645,0.1762,0.1683,0.1687,0.1663,0.1664,0.1666,0.1786,0,0.105,0.1105,0.1146,0.12,0.1228,0.1282,0.1327,0.1381,0.1431,0.149,0.1525,0.1582,0.1576,0.1612,0.1634,0.1663,0.1698,0.1641,0.1713,0.1716,0.164,0.1696,0.1671,0.1794,0.1796,0.1798,0.18,0,0.1059,0.1096,0.1148,0.1219,0.1238,0.1279,0.1359,0.141,0.1493,0.1536,0.16,0.1638,0.1705,0.168,0.1764,0.1736,0.1759,0.1769,0.1774,0.1688,0.1656,0.1737,0.1819,0.1817,0.1816,0.1815,0.1813,0,0.1018,0.1095,0.1136,0.1161,0.1245,0.1287,0.1342,0.1426,0.1479,0.1582,0.1636,0.1709,0.1774,0.1805,0.1853,0.1822,0.1933,0.1886,0.184,0.1836,0.185,0.1841,0.1937,0.1937,0.1937,0.1936,0.1936,0,0.1003,0.1038,0.1125,0.1145,0.1199,0.1274,0.1345,0.141,0.1515,0.1588,0.1668,0.1739,0.1809,0.1882,0.1893,0.1917,0.1976,0.1862,0.186,0.187,0.1862,0.1859,0.1849,0.1941,0.194,0.1939,0.1938,0,0.0949,0.1009,0.1055,0.1147,0.1181,0.1222,0.1345,0.1399,0.1511,0.1614,0.1662,0.1794,0.1895,0.1955,0.2026,0.1975,0.1995,0.1986,0.2035,0.2032,0.1871,0.1862,0.1939,0.1937,0.1936,0.1934,0.1933,0,0.0926,0.0945,0.1037,0.1068,0.1115,0.1194,0.1253,0.138,0.1448,0.1639,0.1685,0.1836,0.1911,0.1957,0.2016,0.2051,0.2018,0.2021,0.1898,0.188,0.1871,0.1864,0.1857,0.1931,0.193,0.193,0.1929,0,0.0869,0.0909,0.0944,0.1013,0.1076,0.1144,0.1248,0.1288,0.1453,0.156,0.1678,0.1747,0.1861,0.1915,0.1969,0.1977,0.2006,0.2004,0.2005,0.1889,0.1871,0.1862,0.1857,0.1924,0.1925,0.1925,0.1926,0,0.0825,0.0834,0.0893,0.0948,0.1026,0.1095,0.1148,0.125,0.1336,0.1541,0.1582,0.1735,0.1856,0.1882,0.1929,0.194,0.1893,0.181,0.182,0.1827,0.1731,0.1687,0.1696,0,0,0,0,0,0.0776,0.079,0.0832,0.0897,0.0976,0.1035,0.1152,0.1216,0.1366,0.1415,0.1497,0.1598,0.1689,0.1764,0.1751,0.1876,0.1896,0.1854,0.1803,0.1894,0.1901,0.1796,0,0,0,0,0,0,0.0745,0.0778,0.0805,0.0855,0.0898,0.0991,0.1066,0.1165,0.1197,0.1344,0.1397,0.1507,0.1609,0.1682,0.1723,0.1745,0.1683,0.1943,0.194,0.1891,0.1897,0.1901,0.1796,0,0,0,0,0]},{"header":{"parameterUnit":"m.s-1","parameterCategory":2,"la1":30.2991,"la2":30.254,"lo1":-89.0895,"lo2":-89.0444,"dx":0.0017,"dy":0.0017,"nx":28,"ny":28,"refTime":"2022-12-23T15:00:00:Z","depth":"4","parameterNumber":3,"parameterNumberName":"V-component_of_CURRENTS"},"data":[0,0,0,0,0,0,0,0,0,0,0,0,0,0,0,0,0,0,0,0,0,0,0,0,0,0,0,0,0,0,0,0,0,0,0,0,0,0,0,0,0,0,0,0,0,0,0,0,0,0,0,0,0,0,0,0,0,0,0.0051,0.0051,0,-0.0001,-0.0001,-0.0002,-0.0033,-0.0033,-0.0034,-0.0034,-0.0092,-0.0093,-0.0095,0,0,0,0,0,0,0,0,0,0,0,0,0,0.0138,0.0136,0.0051,0.0051,0.005,-0.0001,-0.0001,-0.0002,-0.0033,-0.0033,-0.0034,-0.0034,-0.0091,-0.0093,-0.0095,0,0,0,0,0,0,0,0,0,0,0,0,0,0.0095,0.0136,0.0052,0.0028,0.0026,-0.0001,-0.0002,-0.0002,-0.0033,-0.0033,-0.0034,-0.0034,-0.0091,-0.0093,-0.0095,-0.0103,0,0,-0.0101,-0.0102,0,0,0,0,0,0,0,0,0.0097,0.0091,0.0032,0.003,0.0027,-0.0011,0.0008,-0.0036,-0.0033,-0.0011,-0.0034,-0.0034,-0.0065,-0.007,-0.0078,-0.0106,-0.0108,-0.0102,-0.0103,-0.0104,-0.0104,0,0,0,0,0,0,0,0.01,0.0094,0.0031,0.0032,0.0028,0.0025,0.0019,-0.0001,-0.0036,-0.0013,-0.0015,-0.0021,-0.0067,-0.0076,-0.008,-0.0109,-0.0101,-0.0103,-0.0105,-0.0105,-0.0171,-0.0172,0,0,0,0,0,0,0.0105,0.0096,0.0033,0.0029,0.0062,0.0024,0.0016,0.0002,-0.0036,-0.0042,-0.0021,-0.0022,-0.0073,-0.0078,-0.0082,-0.0109,-0.0104,-0.0106,-0.0107,-0.0171,-0.0171,-0.0172,0,0,0,0,0,0,0.0107,0.01,0.0035,0.0062,0.0054,0.0022,0.0006,0.0001,-0.0012,-0.0042,-0.0048,-0.0028,-0.0073,-0.0079,-0.0104,-0.0111,-0.0107,-0.0108,-0.017,-0.0171,-0.0172,-0.0154,0,0,0,0,0,0,0.011,0.0101,0.0092,0.0062,0.0052,0.002,0.0006,-0.0,-0.0015,-0.0018,-0.005,-0.0056,-0.0074,-0.0101,-0.0106,-0.0114,-0.011,-0.017,-0.0171,-0.0171,-0.0154,-0.0154,-0.0154,0,0,0,0,0,0.0113,0.0101,0.0091,0.0084,0.004,0.0019,0.0014,-0.0008,-0.0015,-0.002,-0.0044,-0.0055,-0.0111,-0.0103,-0.0109,-0.0118,-0.0169,-0.017,-0.0171,-0.0154,-0.0154,-0.0154,0,0,0,0,0,0,0.0127,0.0096,0.0085,0.0061,0.0043,0.0014,0.0006,-0.0007,-0.003,-0.0033,-0.006,-0.0067,-0.0094,-0.0108,-0.0098,-0.014,-0.0142,-0.0145,-0.0127,-0.0127,-0.0127,-0.0105,-0.0112,0,0,0,0,0,0.0128,0.0114,0.0085,0.0067,0.0059,0.0034,0.0023,0.0008,-0.0015,-0.0026,-0.0049,-0.0076,-0.0103,-0.0115,-0.0141,-0.0159,-0.0172,-0.017,-0.017,-0.017,-0.0157,-0.0184,-0.0185,-0.0176,-0.0176,-0.0176,0,0,0.0128,0.011,0.0101,0.0071,0.0055,0.0049,0.0026,0.001,0.0005,-0.0028,-0.0045,-0.0078,-0.0109,-0.0135,-0.0147,-0.0146,-0.0183,-0.0171,-0.0171,-0.0157,-0.0185,-0.0186,-0.0187,-0.0176,-0.0176,-0.0176,0,0,0.0135,0.0107,0.0105,0.0093,0.0071,0.0056,0.0053,0.0024,0.0011,-0.001,-0.0039,-0.0074,-0.0109,-0.0136,-0.0153,-0.0167,-0.0185,-0.0179,-0.0158,-0.0185,-0.0185,-0.0186,-0.0215,-0.0219,-0.0176,-0.0176,-0.0176,0,0.0139,0.0132,0.0102,0.0101,0.0099,0.0063,0.007,0.0047,0.0014,0.001,-0.0012,-0.0071,-0.0108,-0.0133,-0.0147,-0.0166,-0.0182,-0.0154,-0.0183,-0.0184,-0.0185,-0.0215,-0.0219,-0.0175,-0.0175,-0.0175,-0.0175,0,0.015,0.0147,0.0145,0.0135,0.0125,0.0123,0.0095,0.0082,0.006,0.0039,0.0006,-0.0049,-0.0077,-0.0108,-0.0135,-0.0161,-0.0172,-0.0182,-0.0179,-0.0185,-0.0217,-0.0221,-0.0174,-0.0174,-0.0175,-0.0175,0,0,0.0159,0.0157,0.0158,0.0177,0.0149,0.0151,0.0136,0.0125,0.0134,0.0076,0.0083,0.0001,-0.0028,-0.0049,-0.0094,-0.013,-0.0172,-0.0157,-0.0159,-0.0179,-0.0232,-0.0242,-0.0248,-0.0186,-0.0186,-0.0186,-0.0256,0,0.0184,0.0211,0.0193,0.0223,0.0241,0.021,0.0211,0.0191,0.0165,0.0157,0.0087,0.0064,-0.0005,-0.002,-0.0069,-0.0141,-0.0181,-0.0152,-0.023,-0.0232,-0.0234,-0.0252,-0.0188,-0.0259,-0.026,-0.0261,-0.0261,0,0.0207,0.0229,0.0266,0.0299,0.0304,0.031,0.0324,0.0319,0.0284,0.0261,0.0215,0.0163,0.0091,0.0039,-0.0087,-0.0064,-0.0143,-0.0207,-0.0211,-0.0223,-0.025,-0.0251,-0.0269,-0.0269,-0.0268,-0.0268,-0.0267,0,0.0257,0.0284,0.0327,0.0333,0.035,0.0367,0.0375,0.0355,0.0361,0.0328,0.032,0.0236,0.0188,0.0085,-0.007,-0.0073,-0.0202,-0.022,-0.0303,-0.0305,-0.0282,-0.028,-0.0298,-0.0298,-0.0298,-0.0298,-0.0298,0,0.0299,0.0335,0.036,0.0385,0.0449,0.0434,0.0486,0.0475,0.0461,0.0467,0.0381,0.0355,0.0194,0.0092,-0.0034,-0.0186,-0.0179,-0.0298,-0.0322,-0.0275,-0.0272,-0.0286,-0.0283,-0.0301,-0.03,-0.0299,-0.0299,0,0.0346,0.0356,0.0418,0.0457,0.0475,0.0522,0.0558,0.0584,0.0559,0.0563,0.0548,0.0435,0.0294,0.0133,-0.0044,-0.0145,-0.0282,-0.0337,-0.0275,-0.0295,-0.0373,-0.0369,-0.0423,-0.0424,-0.0425,-0.0425,-0.0426,0,0.0373,0.0408,0.0478,0.0517,0.0538,0.06,0.0633,0.0634,0.0647,0.0603,0.0598,0.0472,0.0376,0.0128,-0.0044,-0.027,-0.0311,-0.0375,-0.0379,-0.0367,-0.0385,-0.038,-0.0375,-0.0427,-0.0427,-0.0428,-0.0428,0,0.0429,0.0451,0.05,0.0576,0.0627,0.069,0.0732,0.0748,0.0731,0.0715,0.0631,0.0489,0.0332,0.0129,-0.0053,-0.0216,-0.0325,-0.0384,-0.0383,-0.0387,-0.0373,-0.0389,-0.0383,-0.043,-0.043,-0.043,-0.043,0,0.0468,0.0512,0.0563,0.0629,0.0693,0.0737,0.077,0.0766,0.0774,0.071,0.0683,0.0506,0.0402,0.0156,-0.0008,-0.0172,-0.0217,-0.0265,-0.0272,-0.0271,-0.0213,-0.0171,-0.0184,0,0,0,0,0,0.05,0.054,0.0604,0.0668,0.0725,0.0759,0.0805,0.0819,0.0808,0.0755,0.0716,0.0566,0.0305,0.0196,0.003,-0.0026,-0.0244,-0.0226,-0.0302,-0.0445,-0.0442,-0.0401,0,0,0,0,0,0,0.052,0.0582,0.0606,0.0672,0.0715,0.0776,0.0808,0.0806,0.0775,0.0741,0.0608,0.053,0.0283,0.04,0.0029,-0.0022,-0.0092,-0.0348,-0.0351,-0.0447,-0.0444,-0.0441,-0.0399,0,0,0,0,0]}]]